Time,TemperatureF,DewpointF,PressureIn,WindDirection,WindDirectionDegrees,WindSpeedMPH,WindSpeedGustMPH,Humidity,HourlyPrecipIn,Conditions,Clouds,dailyrainin,SoftwareType,DateUTC
2013-01-12 00:00:00,33.2,31.9,30.16,SSW,199,0.0,1.0,95,0.00,,,0.08,Wunderground v.1.13,2013-01-12 05:00:00,
2013-01-12 00:05:00,33.4,32.1,30.16,SSW,199,0.0,0.0,95,0.00,,,0.00,Wunderground v.1.13,2013-01-12 05:05:00,
2013-01-12 00:10:00,33.4,32.1,30.16,SSW,199,0.0,0.0,95,0.00,,,0.00,Wunderground v.1.13,2013-01-12 05:10:00,
2013-01-12 00:15:00,33.4,32.1,30.16,SSW,192,0.0,0.0,95,0.00,,,0.00,Wunderground v.1.13,2013-01-12 05:15:00,
2013-01-12 00:20:00,33.4,32.1,30.16,SSW,192,0.0,0.0,95,0.00,,,0.00,Wunderground v.1.13,2013-01-12 05:20:00,
2013-01-12 00:25:00,33.4,32.1,30.16,SW,224,0.0,0.0,95,0.00,,,0.00,Wunderground v.1.13,2013-01-12 05:25:00,
2013-01-12 00:30:00,33.7,32.7,30.15,North,-999,0.0,0.0,96,0.01,,,-99.99,WeatherLink 6.0.2,2013-01-12 05:30:00,
2013-01-12 00:35:00,33.4,32.1,30.15,SW,224,0.0,0.0,95,0.00,,,0.00,Wunderground v.1.13,2013-01-12 05:35:00,
2013-01-12 00:40:00,33.4,32.1,30.15,SE,126,0.0,0.0,95,0.00,,,0.00,Wunderground v.1.13,2013-01-12 05:40:00,
2013-01-12 00:45:00,33.5,32.2,30.15,SE,126,0.0,0.0,95,0.00,,,0.00,Wunderground v.1.13,2013-01-12 05:45:00,
2013-01-12 00:50:00,33.5,32.2,30.15,SE,126,0.0,0.0,95,0.00,,,0.00,Wunderground v.1.13,2013-01-12 05:50:00,
2013-01-12 00:55:00,34.0,33.2,30.15,North,-999,0.0,0.0,97,0.01,,,-99.99,WeatherLink 6.0.2,2013-01-12 05:55:00,
2013-01-12 01:00:00,33.5,32.2,30.15,SE,135,0.0,0.0,95,0.00,,,0.00,Wunderground v.1.13,2013-01-12 06:00:00,
2013-01-12 01:05:00,33.4,32.1,30.15,SE,135,0.0,0.0,95,0.00,,,0.01,Wunderground v.1.13,2013-01-12 06:05:00,
2013-01-12 01:10:00,33.4,32.1,30.15,SE,134,0.0,0.0,95,0.00,,,0.01,Wunderground v.1.13,2013-01-12 06:10:00,
2013-01-12 01:15:00,33.4,32.4,30.13,SE,135,0.0,0.0,96,0.00,,,0.01,Wunderground v.1.13,2013-01-12 06:15:00,
2013-01-12 01:20:00,33.5,32.5,30.13,SE,135,0.0,0.0,96,0.00,,,0.01,Wunderground v.1.13,2013-01-12 06:20:00,
2013-01-12 01:25:00,33.7,32.7,30.15,North,-999,0.0,0.0,96,0.00,,,-99.99,WeatherLink 6.0.2,2013-01-12 06:25:00,
2013-01-12 01:30:00,33.7,32.7,30.15,SE,143,0.0,0.0,96,0.00,,,0.01,Wunderground v.1.13,2013-01-12 06:30:00,
2013-01-12 01:35:00,33.7,32.7,30.15,SE,143,0.0,0.0,96,0.00,,,0.01,Wunderground v.1.13,2013-01-12 06:35:00,
2013-01-12 01:40:00,33.7,32.7,30.15,SE,143,0.0,0.0,96,0.00,,,0.01,Wunderground v.1.13,2013-01-12 06:40:00,
2013-01-12 01:45:00,33.8,32.8,30.15,SSE,167,0.0,0.0,96,0.00,,,0.01,Wunderground v.1.13,2013-01-12 06:45:00,
2013-01-12 01:50:00,34.1,33.3,30.15,SSE,167,0.0,0.0,97,0.00,,,0.01,Wunderground v.1.13,2013-01-12 06:50:00,
2013-01-12 01:55:00,33.5,32.7,30.13,North,-999,0.0,0.0,97,0.01,,,-99.99,WeatherLink 6.0.2,2013-01-12 06:55:00,
2013-01-12 02:00:00,34.0,33.2,30.15,SSE,167,0.0,0.0,97,0.00,,,0.01,Wunderground v.1.13,2013-01-12 07:00:00,
2013-01-12 02:05:00,34.0,33.0,30.15,SSE,167,0.0,0.0,96,0.00,,,0.01,Wunderground v.1.13,2013-01-12 07:05:00,
2013-01-12 02:10:00,34.0,33.2,30.15,SSE,167,0.0,0.0,97,0.00,,,0.01,Wunderground v.1.13,2013-01-12 07:10:00,
2013-01-12 02:15:00,33.8,33.0,30.15,SSE,167,0.0,0.0,97,0.00,,,0.01,Wunderground v.1.13,2013-01-12 07:15:00,
2013-01-12 02:20:00,33.8,33.0,30.15,SSE,161,0.0,0.0,97,0.00,,,0.01,Wunderground v.1.13,2013-01-12 07:20:00,
2013-01-12 02:25:00,33.9,33.1,30.13,SSW,202,0.0,3.0,97,0.01,,,-99.99,WeatherLink 6.0.2,2013-01-12 07:25:00,
2013-01-12 02:30:00,33.7,32.9,30.14,SSE,160,0.0,0.0,97,0.00,,,0.02,Wunderground v.1.13,2013-01-12 07:30:00,
2013-01-12 02:35:00,33.5,32.7,30.14,SSE,160,0.0,0.0,97,0.00,,,0.02,Wunderground v.1.13,2013-01-12 07:35:00,
2013-01-12 02:40:00,33.5,32.7,30.14,SSE,160,0.0,0.0,97,0.00,,,0.02,Wunderground v.1.13,2013-01-12 07:40:00,
2013-01-12 02:45:00,33.7,32.9,30.13,SSE,160,0.0,0.0,97,0.00,,,0.02,Wunderground v.1.13,2013-01-12 07:45:00,
2013-01-12 02:50:00,33.5,32.7,30.13,SSE,160,0.0,0.0,97,0.00,,,0.02,Wunderground v.1.13,2013-01-12 07:50:00,
2013-01-12 02:55:00,33.5,32.7,30.13,SSE,160,0.0,0.0,97,0.00,,,0.02,Wunderground v.1.13,2013-01-12 07:55:00,
2013-01-12 03:00:00,34.4,33.6,30.12,North,-999,0.0,0.0,97,0.00,,,-99.99,WeatherLink 6.0.2,2013-01-12 08:00:00,
2013-01-12 03:05:00,33.7,32.9,30.13,SSE,160,0.0,0.0,97,0.00,,,0.02,Wunderground v.1.13,2013-01-12 08:05:00,
2013-01-12 03:10:00,33.8,33.0,30.13,SSE,160,0.0,0.0,97,0.00,,,0.02,Wunderground v.1.13,2013-01-12 08:10:00,
2013-01-12 03:15:00,33.8,33.0,30.13,SSE,160,0.0,0.0,97,0.00,,,0.02,Wunderground v.1.13,2013-01-12 08:15:00,
2013-01-12 03:20:00,33.8,33.0,30.13,SSE,160,0.0,0.0,97,0.00,,,0.02,Wunderground v.1.13,2013-01-12 08:20:00,
2013-01-12 03:25:00,34.1,33.3,30.13,SSW,206,0.0,0.0,97,0.00,,,0.02,Wunderground v.1.13,2013-01-12 08:25:00,
2013-01-12 03:30:00,34.3,33.5,30.14,North,-999,0.0,0.0,97,0.00,,,-99.99,WeatherLink 6.0.2,2013-01-12 08:30:00,
2013-01-12 03:35:00,34.1,33.3,30.13,SSW,206,0.0,0.0,97,0.00,,,0.02,Wunderground v.1.13,2013-01-12 08:35:00,
2013-01-12 03:40:00,34.3,33.5,30.13,SSW,206,0.0,0.0,97,0.00,,,0.02,Wunderground v.1.13,2013-01-12 08:40:00,
2013-01-12 03:45:00,34.3,33.5,30.13,SSW,206,0.0,0.0,97,0.00,,,0.02,Wunderground v.1.13,2013-01-12 08:45:00,
2013-01-12 03:50:00,34.4,33.6,30.13,SSW,206,0.0,0.0,97,0.00,,,0.02,Wunderground v.1.13,2013-01-12 08:50:00,
2013-01-12 03:55:00,34.0,33.2,30.13,SSW,202,0.0,1.0,97,0.01,,,-99.99,WeatherLink 6.0.2,2013-01-12 08:55:00,
2013-01-12 04:00:00,34.4,33.6,30.12,SSW,206,0.0,0.0,97,0.00,,,0.02,Wunderground v.1.13,2013-01-12 09:00:00,
2013-01-12 04:05:00,34.4,33.6,30.12,SSW,206,0.0,0.0,97,0.00,,,0.02,Wunderground v.1.13,2013-01-12 09:05:00,
2013-01-12 04:10:00,34.4,33.6,30.12,SSW,206,0.0,0.0,97,0.00,,,0.02,Wunderground v.1.13,2013-01-12 09:10:00,
2013-01-12 04:15:00,34.0,33.2,30.12,North,-999,0.0,0.0,97,0.01,,,-99.99,WeatherLink 6.0.2,2013-01-12 09:15:00,
2013-01-12 04:20:00,34.3,33.5,30.14,SSW,206,0.0,0.0,97,0.00,,,0.02,Wunderground v.1.13,2013-01-12 09:20:00,
2013-01-12 04:25:00,34.3,33.5,30.14,SSW,206,0.0,0.0,97,0.00,,,0.02,Wunderground v.1.13,2013-01-12 09:25:00,
2013-01-12 04:30:00,34.3,33.5,30.14,SSW,206,0.0,0.0,97,0.00,,,0.02,Wunderground v.1.13,2013-01-12 09:30:00,
2013-01-12 04:35:00,34.1,33.3,30.14,SSW,206,0.0,0.0,97,0.00,,,0.02,Wunderground v.1.13,2013-01-12 09:35:00,
2013-01-12 04:40:00,34.0,33.2,30.14,SSW,206,0.0,0.0,97,0.00,,,0.03,Wunderground v.1.13,2013-01-12 09:40:00,
2013-01-12 04:45:00,34.0,33.2,30.13,SSW,206,0.0,0.0,97,0.00,,,0.03,Wunderground v.1.13,2013-01-12 09:45:00,
2013-01-12 04:50:00,34.4,33.9,30.11,SE,135,0.0,1.0,98,0.01,,,-99.99,WeatherLink 6.0.2,2013-01-12 09:50:00,
2013-01-12 04:55:00,34.0,33.2,30.13,SSW,206,0.0,0.0,97,0.00,,,0.03,Wunderground v.1.13,2013-01-12 09:55:00,
2013-01-12 05:00:00,34.0,33.2,30.12,SSW,206,0.0,0.0,97,0.00,,,0.03,Wunderground v.1.13,2013-01-12 10:00:00,
2013-01-12 05:05:00,34.0,33.2,30.12,SSW,206,0.0,0.0,97,0.00,,,0.03,Wunderground v.1.13,2013-01-12 10:05:00,
2013-01-12 05:10:00,34.0,33.2,30.12,SSW,206,0.0,0.0,97,0.00,,,0.03,Wunderground v.1.13,2013-01-12 10:10:00,
2013-01-12 05:15:00,34.0,33.2,30.12,SSW,206,0.0,0.0,97,0.00,,,0.03,Wunderground v.1.13,2013-01-12 10:15:00,
2013-01-12 05:20:00,34.8,34.3,30.14,North,-999,0.0,0.0,98,0.00,,,-99.99,WeatherLink 6.0.2,2013-01-12 10:20:00,
2013-01-12 05:25:00,34.1,33.3,30.12,SSE,148,0.0,0.0,97,0.00,,,0.04,Wunderground v.1.13,2013-01-12 10:25:00,
2013-01-12 05:30:00,34.3,33.5,30.12,SSE,148,0.0,0.0,97,0.00,,,0.04,Wunderground v.1.13,2013-01-12 10:30:00,
2013-01-12 05:35:00,34.1,33.3,30.12,SSE,148,0.0,0.0,97,0.00,,,0.04,Wunderground v.1.13,2013-01-12 10:35:00,
2013-01-12 05:40:00,34.3,33.5,30.12,SE,145,0.0,0.0,97,0.00,,,0.04,Wunderground v.1.13,2013-01-12 10:40:00,
2013-01-12 05:45:00,34.4,33.6,30.11,SE,145,0.0,0.0,97,0.00,,,0.04,Wunderground v.1.13,2013-01-12 10:45:00,
2013-01-12 05:50:00,34.4,33.9,30.11,SE,145,0.0,0.0,98,0.00,,,0.04,Wunderground v.1.13,2013-01-12 10:50:00,
2013-01-12 05:55:00,35.0,34.5,30.14,North,-999,0.0,0.0,98,0.01,,,-99.99,WeatherLink 6.0.2,2013-01-12 10:55:00,
2013-01-12 06:00:00,34.4,33.9,30.12,SE,145,0.0,0.0,98,0.00,,,0.04,Wunderground v.1.13,2013-01-12 11:00:00,
2013-01-12 06:05:00,34.6,34.1,30.12,SE,145,0.0,0.0,98,0.00,,,0.04,Wunderground v.1.13,2013-01-12 11:05:00,
2013-01-12 06:10:00,34.6,34.1,30.12,SE,145,0.0,0.0,98,0.00,,,0.04,Wunderground v.1.13,2013-01-12 11:10:00,
2013-01-12 06:15:00,34.7,34.2,30.14,SE,145,0.0,0.0,98,0.00,,,0.04,Wunderground v.1.13,2013-01-12 11:15:00,
2013-01-12 06:20:00,34.9,34.4,30.14,SE,145,0.0,0.0,98,0.00,,,0.04,Wunderground v.1.13,2013-01-12 11:20:00,
2013-01-12 06:25:00,34.9,34.4,30.14,SE,145,0.0,0.0,98,0.00,,,0.04,Wunderground v.1.13,2013-01-12 11:25:00,
2013-01-12 06:30:00,34.9,34.4,30.14,SE,145,0.0,0.0,98,0.00,,,0.04,Wunderground v.1.13,2013-01-12 11:30:00,
2013-01-12 06:35:00,35.0,34.5,30.15,North,-999,0.0,0.0,98,0.01,,,-99.99,WeatherLink 6.0.2,2013-01-12 11:35:00,
2013-01-12 06:40:00,35.0,34.5,30.14,SE,145,0.0,0.0,98,0.00,,,0.04,Wunderground v.1.13,2013-01-12 11:40:00,
2013-01-12 06:45:00,35.0,34.5,30.14,SE,145,0.0,0.0,98,0.00,,,0.04,Wunderground v.1.13,2013-01-12 11:45:00,
2013-01-12 06:50:00,35.0,34.5,30.14,SE,145,0.0,0.0,98,0.00,,,0.04,Wunderground v.1.13,2013-01-12 11:50:00,
2013-01-12 06:55:00,35.0,34.5,30.14,SE,145,0.0,0.0,98,0.00,,,0.05,Wunderground v.1.13,2013-01-12 11:55:00,
2013-01-12 07:00:00,35.0,34.5,30.15,SE,145,0.0,0.0,98,0.00,,,0.05,Wunderground v.1.13,2013-01-12 12:00:00,
2013-01-12 07:05:00,35.0,34.5,30.15,SE,145,0.0,0.0,98,0.00,,,0.05,Wunderground v.1.13,2013-01-12 12:05:00,
2013-01-12 07:10:00,34.9,34.4,30.15,SE,145,0.0,0.0,98,0.00,,,0.05,Wunderground v.1.13,2013-01-12 12:10:00,
2013-01-12 07:15:00,35.2,34.7,30.17,North,-999,0.0,0.0,98,0.00,,,-99.99,WeatherLink 6.0.2,2013-01-12 12:15:00,
2013-01-12 07:20:00,34.9,34.4,30.15,SE,145,0.0,0.0,98,0.00,,,0.05,Wunderground v.1.13,2013-01-12 12:20:00,
2013-01-12 07:25:00,35.0,34.5,30.15,SE,145,0.0,0.0,98,0.00,,,0.05,Wunderground v.1.13,2013-01-12 12:25:00,
2013-01-12 07:30:00,35.3,34.8,30.16,North,-999,0.0,0.0,98,0.00,,,-99.99,WeatherLink 6.0.2,2013-01-12 12:30:00,
2013-01-12 07:35:00,35.0,34.5,30.15,SE,145,0.0,0.0,98,0.00,,,0.05,Wunderground v.1.13,2013-01-12 12:35:00,
2013-01-12 07:40:00,35.0,34.5,30.15,SE,145,0.0,0.0,98,0.00,,,0.05,Wunderground v.1.13,2013-01-12 12:40:00,
2013-01-12 07:45:00,35.0,34.5,30.16,SE,145,0.0,0.0,98,0.00,,,0.05,Wunderground v.1.13,2013-01-12 12:45:00,
2013-01-12 07:50:00,35.0,34.5,30.16,SE,145,0.0,0.0,98,0.00,,,0.05,Wunderground v.1.13,2013-01-12 12:50:00,
2013-01-12 07:55:00,35.7,35.2,30.16,North,-999,0.0,0.0,98,0.00,,,-99.99,WeatherLink 6.0.2,2013-01-12 12:55:00,
2013-01-12 08:00:00,35.0,34.5,30.17,SE,145,0.0,0.0,98,0.00,,,0.05,Wunderground v.1.13,2013-01-12 13:00:00,
2013-01-12 08:05:00,35.0,34.5,30.17,SE,145,0.0,0.0,98,0.00,,,0.05,Wunderground v.1.13,2013-01-12 13:05:00,
2013-01-12 08:10:00,35.9,35.4,30.16,North,-999,0.0,0.0,98,0.01,,,-99.99,WeatherLink 6.0.2,2013-01-12 13:10:00,
2013-01-12 08:15:00,35.2,34.7,30.16,SE,145,0.0,0.0,98,0.00,,,0.05,Wunderground v.1.13,2013-01-12 13:15:00,
2013-01-12 08:20:00,35.3,34.8,30.16,SE,145,0.0,0.0,98,0.00,,,0.05,Wunderground v.1.13,2013-01-12 13:20:00,
2013-01-12 08:25:00,35.3,34.8,30.16,SE,145,0.0,0.0,98,0.00,,,0.05,Wunderground v.1.13,2013-01-12 13:25:00,
2013-01-12 08:30:00,35.3,34.8,30.16,SE,145,0.0,0.0,98,0.00,,,0.05,Wunderground v.1.13,2013-01-12 13:30:00,
2013-01-12 08:35:00,36.3,35.8,30.18,North,-999,0.0,0.0,98,0.02,,,-99.99,WeatherLink 6.0.2,2013-01-12 13:35:00,
2013-01-12 08:40:00,35.3,34.8,30.16,SE,145,0.0,0.0,98,0.00,,,0.05,Wunderground v.1.13,2013-01-12 13:40:00,
2013-01-12 08:45:00,35.5,35.0,30.16,SE,145,0.0,0.0,98,0.00,,,0.05,Wunderground v.1.13,2013-01-12 13:45:00,
2013-01-12 08:50:00,35.6,35.1,30.16,SE,145,0.0,0.0,98,0.00,,,0.05,Wunderground v.1.13,2013-01-12 13:50:00,
2013-01-12 08:55:00,36.6,36.1,30.16,North,-999,0.0,0.0,98,0.02,,,-99.99,WeatherLink 6.0.2,2013-01-12 13:55:00,
2013-01-12 09:00:00,35.8,35.3,30.16,SE,145,0.0,0.0,98,0.00,,,0.05,Wunderground v.1.13,2013-01-12 14:00:00,
2013-01-12 09:05:00,35.9,35.4,30.16,SE,145,0.0,0.0,98,0.00,,,0.06,Wunderground v.1.13,2013-01-12 14:05:00,
2013-01-12 09:10:00,36.0,35.5,30.16,SE,145,0.0,0.0,98,0.00,,,0.06,Wunderground v.1.13,2013-01-12 14:10:00,
2013-01-12 09:15:00,37.0,36.5,30.14,North,-999,0.0,0.0,98,0.02,,,-99.99,WeatherLink 6.0.2,2013-01-12 14:15:00,
2013-01-12 09:20:00,36.2,35.7,30.15,SE,141,0.0,0.0,98,0.00,,,0.06,Wunderground v.1.13,2013-01-12 14:20:00,
2013-01-12 09:25:00,36.3,35.8,30.15,SE,141,0.0,0.0,98,0.00,,,0.07,Wunderground v.1.13,2013-01-12 14:25:00,
2013-01-12 09:30:00,37.5,37.2,30.15,North,-999,0.0,0.0,99,0.02,,,-99.99,WeatherLink 6.0.2,2013-01-12 14:30:00,
2013-01-12 09:35:00,36.3,35.8,30.18,SE,141,0.0,0.0,98,0.00,,,0.07,Wunderground v.1.13,2013-01-12 14:35:00,
2013-01-12 09:40:00,36.3,35.8,30.18,SE,140,0.0,0.0,98,0.00,,,0.07,Wunderground v.1.13,2013-01-12 14:40:00,
2013-01-12 09:45:00,36.5,36.0,30.16,SE,140,0.0,0.0,98,0.00,,,0.07,Wunderground v.1.13,2013-01-12 14:45:00,
2013-01-12 09:50:00,37.6,37.3,30.15,North,-999,0.0,0.0,99,0.02,,,-99.99,WeatherLink 6.0.2,2013-01-12 14:50:00,
2013-01-12 09:55:00,36.6,36.1,30.16,SE,140,0.0,0.0,98,0.00,,,0.07,Wunderground v.1.13,2013-01-12 14:55:00,
2013-01-12 10:00:00,36.8,36.3,30.16,SE,140,0.0,0.0,98,0.00,,,0.07,Wunderground v.1.13,2013-01-12 15:00:00,
2013-01-12 10:05:00,36.9,36.4,30.16,SE,140,0.0,0.0,98,0.00,,,0.07,Wunderground v.1.13,2013-01-12 15:05:00,
2013-01-12 10:10:00,37.0,36.5,30.16,SE,140,0.0,0.0,98,0.00,,,0.08,Wunderground v.1.13,2013-01-12 15:10:00,
2013-01-12 10:15:00,37.2,36.7,30.14,SE,140,0.0,0.0,98,0.00,,,0.08,Wunderground v.1.13,2013-01-12 15:15:00,
2013-01-12 10:20:00,37.3,36.8,30.14,SE,145,0.0,0.0,98,0.00,,,0.08,Wunderground v.1.13,2013-01-12 15:20:00,
2013-01-12 10:25:00,38.5,38.2,30.13,SW,225,0.0,2.0,99,0.02,,,-99.99,WeatherLink 6.0.2,2013-01-12 15:25:00,
2013-01-12 10:30:00,37.6,37.3,30.15,SE,145,0.0,0.0,99,0.04,,,0.09,Wunderground v.1.13,2013-01-12 15:30:00,
2013-01-12 10:35:00,37.6,37.3,30.15,SE,145,0.0,0.0,99,0.04,,,0.09,Wunderground v.1.13,2013-01-12 15:35:00,
2013-01-12 10:40:00,38.6,38.3,30.11,SW,225,0.0,1.0,99,0.02,,,-99.99,WeatherLink 6.0.2,2013-01-12 15:40:00,
2013-01-12 10:45:00,37.6,37.1,30.15,SE,145,0.0,0.0,98,0.00,,,0.09,Wunderground v.1.13,2013-01-12 15:45:00,
2013-01-12 10:50:00,37.6,37.3,30.15,SE,145,0.0,0.0,99,0.00,,,0.09,Wunderground v.1.13,2013-01-12 15:50:00,
2013-01-12 10:55:00,37.6,37.3,30.15,SE,145,0.0,0.0,99,0.00,,,0.09,Wunderground v.1.13,2013-01-12 15:55:00,
2013-01-12 11:00:00,37.8,37.5,30.13,SW,233,0.0,0.0,99,0.00,,,0.10,Wunderground v.1.13,2013-01-12 16:00:00,
2013-01-12 11:05:00,38.8,38.5,30.09,North,-999,0.0,0.0,99,0.02,,,-99.99,WeatherLink 6.0.2,2013-01-12 16:05:00,
2013-01-12 11:10:00,38.2,37.9,30.13,SW,232,0.0,0.0,99,0.00,,,0.10,Wunderground v.1.13,2013-01-12 16:10:00,
2013-01-12 11:15:00,38.3,38.0,30.13,SW,232,0.0,0.0,99,0.00,,,0.11,Wunderground v.1.13,2013-01-12 16:15:00,
2013-01-12 11:20:00,39.4,39.1,30.10,SW,225,0.0,2.0,99,0.02,,,-99.99,WeatherLink 6.0.2,2013-01-12 16:20:00,
2013-01-12 11:25:00,38.5,38.2,30.13,SW,232,0.0,1.0,99,0.00,,,0.11,Wunderground v.1.13,2013-01-12 16:25:00,
2013-01-12 11:30:00,39.3,39.0,30.09,North,-999,0.0,0.0,99,0.03,,,-99.99,WeatherLink 6.0.2,2013-01-12 16:30:00,
2013-01-12 11:35:00,38.6,38.3,30.11,SW,223,0.0,0.0,99,0.00,,,0.11,Wunderground v.1.13,2013-01-12 16:35:00,
2013-01-12 11:40:00,38.6,38.3,30.11,SW,223,0.0,0.0,99,0.00,,,0.11,Wunderground v.1.13,2013-01-12 16:40:00,
2013-01-12 11:45:00,38.6,38.3,30.10,SW,223,0.0,0.0,99,0.00,,,0.11,Wunderground v.1.13,2013-01-12 16:45:00,
2013-01-12 11:50:00,38.8,38.5,30.10,SW,223,0.0,0.0,99,0.00,,,0.11,Wunderground v.1.13,2013-01-12 16:50:00,
2013-01-12 11:55:00,38.6,38.3,30.10,SW,223,0.0,0.0,99,0.00,,,0.11,Wunderground v.1.13,2013-01-12 16:55:00,
2013-01-12 12:00:00,38.6,38.3,30.09,SW,223,0.0,0.0,99,0.00,,,0.12,Wunderground v.1.13,2013-01-12 17:00:00,
2013-01-12 12:05:00,38.9,38.6,30.09,SW,223,0.0,0.0,99,0.00,,,0.12,Wunderground v.1.13,2013-01-12 17:05:00,
2013-01-12 12:10:00,39.2,38.9,30.09,SW,223,0.0,0.0,99,0.06,,,0.13,Wunderground v.1.13,2013-01-12 17:10:00,
2013-01-12 12:15:00,39.3,39.0,30.10,SW,223,0.0,0.0,99,0.06,,,0.13,Wunderground v.1.13,2013-01-12 17:15:00,
2013-01-12 12:20:00,39.5,39.2,30.10,SW,223,0.0,0.0,99,0.05,,,0.13,Wunderground v.1.13,2013-01-12 17:20:00,
2013-01-12 12:25:00,39.3,39.0,30.10,SW,223,0.0,0.0,99,0.04,,,0.14,Wunderground v.1.13,2013-01-12 17:25:00,
2013-01-12 12:30:00,39.2,38.9,30.09,SW,223,0.0,0.0,99,0.04,,,0.14,Wunderground v.1.13,2013-01-12 17:30:00,
2013-01-12 12:35:00,39.1,38.8,30.12,SW,225,0.0,1.0,99,0.04,,,-99.99,WeatherLink 6.0.2,2013-01-12 17:35:00,
2013-01-12 12:40:00,39.6,39.3,30.09,SW,223,0.0,0.0,99,0.08,,,0.15,Wunderground v.1.13,2013-01-12 17:40:00,
2013-01-12 12:45:00,39.6,39.3,30.11,SW,223,0.0,1.0,99,0.05,,,0.15,Wunderground v.1.13,2013-01-12 17:45:00,
2013-01-12 12:50:00,39.1,38.8,30.11,North,-999,0.0,0.0,99,0.04,,,-99.99,WeatherLink 6.0.2,2013-01-12 17:50:00,
2013-01-12 12:55:00,39.6,39.3,30.11,SW,223,0.0,0.0,99,0.04,,,0.16,Wunderground v.1.13,2013-01-12 17:55:00,
2013-01-12 13:00:00,39.6,39.3,30.11,WSW,240,0.0,0.0,99,0.06,,,0.17,Wunderground v.1.13,2013-01-12 18:00:00,
2013-01-12 13:05:00,39.5,39.2,30.11,WSW,240,1.0,1.0,99,0.06,,,0.17,Wunderground v.1.13,2013-01-12 18:05:00,
2013-01-12 13:10:00,39.3,39.0,30.11,WSW,240,0.0,0.0,99,0.05,,,0.17,Wunderground v.1.13,2013-01-12 18:10:00,
2013-01-12 13:15:00,39.1,38.8,30.11,SW,225,0.0,1.0,99,0.03,,,-99.99,WeatherLink 6.0.2,2013-01-12 18:15:00,
2013-01-12 13:20:00,39.3,39.0,30.12,SW,232,1.0,1.0,99,0.04,,,0.18,Wunderground v.1.13,2013-01-12 18:20:00,
2013-01-12 13:25:00,39.2,38.9,30.12,SW,232,0.0,1.0,99,0.06,,,0.19,Wunderground v.1.13,2013-01-12 18:25:00,
2013-01-12 13:30:00,39.2,38.9,30.12,SW,232,0.0,0.0,99,0.06,,,0.19,Wunderground v.1.13,2013-01-12 18:30:00,
2013-01-12 13:35:00,39.1,38.8,30.12,SW,232,0.0,0.0,99,0.05,,,0.19,Wunderground v.1.13,2013-01-12 18:35:00,
2013-01-12 13:40:00,39.8,39.5,30.11,North,-999,0.0,0.0,99,0.04,,,-99.99,WeatherLink 6.0.2,2013-01-12 18:40:00,
2013-01-12 13:45:00,39.1,38.8,30.11,SW,232,0.0,0.0,99,0.00,,,0.20,Wunderground v.1.13,2013-01-12 18:45:00,
2013-01-12 13:50:00,39.1,38.8,30.11,SW,232,0.0,0.0,99,0.00,,,0.20,Wunderground v.1.13,2013-01-12 18:50:00,
2013-01-12 13:55:00,39.9,39.6,30.11,SW,225,0.0,2.0,99,0.02,,,-99.99,WeatherLink 6.0.2,2013-01-12 18:55:00,
2013-01-12 14:00:00,38.9,38.6,30.11,SW,232,0.0,0.0,99,0.05,,,0.21,Wunderground v.1.13,2013-01-12 19:00:00,
2013-01-12 14:05:00,39.1,38.8,30.11,SW,232,0.0,0.0,99,0.05,,,0.21,Wunderground v.1.13,2013-01-12 19:05:00,
2013-01-12 14:10:00,39.1,38.8,30.11,SW,232,0.0,0.0,99,0.04,,,0.21,Wunderground v.1.13,2013-01-12 19:10:00,
2013-01-12 14:15:00,40.2,39.9,30.12,SW,225,0.0,2.0,99,0.04,,,-99.99,WeatherLink 6.0.2,2013-01-12 19:15:00,
2013-01-12 14:20:00,39.5,39.2,30.11,SW,232,0.0,0.0,99,0.00,,,0.21,Wunderground v.1.13,2013-01-12 19:20:00,
2013-01-12 14:25:00,39.6,39.3,30.11,SW,232,0.0,0.0,99,0.00,,,0.22,Wunderground v.1.13,2013-01-12 19:25:00,
2013-01-12 14:30:00,39.6,39.3,30.11,SW,232,0.0,0.0,99,0.00,,,0.22,Wunderground v.1.13,2013-01-12 19:30:00,
2013-01-12 14:35:00,39.8,39.5,30.11,SW,232,0.0,0.0,99,0.05,,,0.23,Wunderground v.1.13,2013-01-12 19:35:00,
2013-01-12 14:40:00,39.8,39.5,30.11,SW,232,0.0,0.0,99,0.05,,,0.23,Wunderground v.1.13,2013-01-12 19:40:00,
2013-01-12 14:45:00,39.5,39.2,30.12,SW,225,0.0,1.0,99,0.03,,,-99.99,WeatherLink 6.0.2,2013-01-12 19:45:00,
2013-01-12 14:50:00,39.9,39.6,30.11,SW,232,0.0,0.0,99,0.04,,,0.23,Wunderground v.1.13,2013-01-12 19:50:00,
2013-01-12 14:55:00,39.9,39.6,30.11,SW,232,0.0,0.0,99,0.00,,,0.23,Wunderground v.1.13,2013-01-12 19:55:00,
2013-01-12 15:00:00,39.8,39.5,30.11,SW,232,0.0,1.0,99,0.00,,,0.24,Wunderground v.1.13,2013-01-12 20:00:00,
2013-01-12 15:05:00,40.1,39.8,30.11,SW,232,0.0,2.0,99,0.00,,,0.24,Wunderground v.1.13,2013-01-12 20:05:00,
2013-01-12 15:10:00,39.2,38.9,30.21,North,-999,0.0,0.0,99,0.03,,,-99.99,WeatherLink 6.0.2,2013-01-12 20:10:00,
2013-01-12 15:15:00,40.2,39.9,30.12,SW,232,1.0,1.0,99,0.05,,,0.25,Wunderground v.1.13,2013-01-12 20:15:00,
2013-01-12 15:20:00,39.9,39.6,30.12,SW,232,0.0,0.0,99,0.05,,,0.25,Wunderground v.1.13,2013-01-12 20:20:00,
2013-01-12 15:25:00,39.6,39.3,30.12,SW,232,0.0,0.0,99,0.04,,,0.25,Wunderground v.1.13,2013-01-12 20:25:00,
2013-01-12 15:30:00,39.5,39.2,30.11,SW,232,0.0,0.0,99,0.00,,,0.25,Wunderground v.1.13,2013-01-12 20:30:00,
2013-01-12 15:35:00,39.1,38.8,30.21,SW,225,0.0,2.0,99,0.02,,,-99.99,WeatherLink 6.0.2,2013-01-12 20:35:00,
2013-01-12 15:40:00,39.5,39.2,30.11,SW,232,0.0,0.0,99,0.00,,,0.25,Wunderground v.1.13,2013-01-12 20:40:00,
2013-01-12 15:45:00,39.6,39.3,30.12,SW,232,0.0,0.0,99,0.00,,,0.26,Wunderground v.1.13,2013-01-12 20:45:00,
2013-01-12 15:50:00,39.7,39.4,30.22,SW,225,0.0,2.0,99,0.03,,,0.26,Wunderground v.1.13,2013-01-12 20:50:00,
2013-01-12 15:55:00,39.6,39.3,30.22,SW,225,0.0,2.0,99,0.03,,,0.26,Wunderground v.1.13,2013-01-12 20:55:00,
2013-01-12 16:00:00,39.3,39.0,30.21,N/A,-737280,0.0,0.0,99,0.02,,,0.26,Wunderground v.1.13,2013-01-12 21:00:00,
2013-01-12 16:05:00,39.1,38.8,30.13,SW,225,0.0,2.0,99,0.02,,,-99.99,WeatherLink 6.0.2,2013-01-12 21:05:00,
2013-01-12 16:10:00,39.1,38.8,30.21,SW,232,0.0,0.0,99,0.00,,,0.27,Wunderground v.1.13,2013-01-12 21:10:00,
2013-01-12 16:15:00,39.4,39.4,30.13,SW,225,0.0,1.0,100,0.01,,,-99.99,WeatherLink 6.0.2,2013-01-12 21:15:00,
2013-01-12 16:20:00,39.1,38.8,30.21,SW,232,0.0,0.0,99,0.00,,,0.27,Wunderground v.1.13,2013-01-12 21:20:00,
2013-01-12 16:25:00,38.8,38.5,30.21,SW,232,0.0,2.0,99,0.00,,,0.27,Wunderground v.1.13,2013-01-12 21:25:00,
2013-01-12 16:30:00,38.9,38.9,30.13,SW,225,0.0,2.0,100,0.01,,,-99.99,WeatherLink 6.0.2,2013-01-12 21:30:00,
2013-01-12 16:35:00,39.1,38.8,30.21,SW,232,1.0,1.0,99,0.00,,,0.27,Wunderground v.1.13,2013-01-12 21:35:00,
2013-01-12 16:40:00,39.2,38.9,30.21,SW,232,0.0,0.0,99,0.00,,,0.27,Wunderground v.1.13,2013-01-12 21:40:00,
2013-01-12 16:45:00,38.6,38.6,30.13,SW,225,0.0,3.0,100,0.02,,,-99.99,WeatherLink 6.0.2,2013-01-12 21:45:00,
2013-01-12 16:50:00,39.1,38.8,30.22,SW,232,0.0,1.0,99,0.00,,,0.27,Wunderground v.1.13,2013-01-12 21:50:00,
2013-01-12 16:55:00,38.7,38.7,30.13,SW,225,0.0,1.0,100,0.02,,,-99.99,WeatherLink 6.0.2,2013-01-12 21:55:00,
2013-01-12 17:00:00,39.1,38.8,30.13,SW,225,0.0,1.0,99,0.01,,,0.27,Wunderground v.1.13,2013-01-12 22:00:00,
2013-01-12 17:05:00,38.3,38.3,30.12,SW,225,0.0,2.0,100,0.01,,,-99.99,WeatherLink 6.0.2,2013-01-12 22:05:00,
2013-01-12 17:10:00,39.3,39.3,30.13,SW,232,0.0,0.0,100,0.00,,,0.28,Wunderground v.1.13,2013-01-12 22:10:00,
2013-01-12 17:15:00,39.3,39.3,30.13,SW,232,0.0,0.0,100,0.00,,,0.28,Wunderground v.1.13,2013-01-12 22:15:00,
2013-01-12 17:20:00,39.2,39.2,30.13,SW,232,0.0,0.0,100,0.00,,,0.28,Wunderground v.1.13,2013-01-12 22:20:00,
2013-01-12 17:25:00,39.1,39.1,30.13,SW,232,0.0,0.0,100,0.00,,,0.28,Wunderground v.1.13,2013-01-12 22:25:00,
2013-01-12 17:30:00,38.9,38.9,30.13,SW,232,0.0,0.0,100,0.00,,,0.28,Wunderground v.1.13,2013-01-12 22:30:00,
2013-01-12 17:35:00,39.1,39.1,30.13,SW,232,0.0,0.0,100,0.00,,,0.29,Wunderground v.1.13,2013-01-12 22:35:00,
2013-01-12 17:40:00,38.9,38.9,30.11,SW,225,1.0,4.0,100,0.00,,,-99.99,WeatherLink 6.0.2,2013-01-12 22:40:00,
2013-01-12 17:45:00,38.5,38.5,30.13,SW,232,0.0,2.0,100,0.00,,,0.29,Wunderground v.1.13,2013-01-12 22:45:00,
2013-01-12 17:50:00,38.8,38.8,30.13,SW,232,1.0,1.0,100,0.00,,,0.29,Wunderground v.1.13,2013-01-12 22:50:00,
2013-01-12 17:55:00,39.0,39.0,30.11,SSW,202,0.0,2.0,100,0.00,,,-99.99,WeatherLink 6.0.2,2013-01-12 22:55:00,
2013-01-12 18:00:00,38.3,38.3,30.12,SW,232,0.0,0.0,100,0.00,,,0.29,Wunderground v.1.13,2013-01-12 23:00:00,
2013-01-12 18:05:00,38.3,38.3,30.12,SW,232,0.0,0.0,100,0.00,,,0.29,Wunderground v.1.13,2013-01-12 23:05:00,
2013-01-12 18:10:00,38.8,38.8,30.11,SSW,202,2.0,3.0,100,0.00,,,-99.99,WeatherLink 6.0.2,2013-01-12 23:10:00,
2013-01-12 18:15:00,38.9,38.9,30.11,SW,232,1.0,1.0,100,0.00,,,0.29,Wunderground v.1.13,2013-01-12 23:15:00,
2013-01-12 18:20:00,38.8,38.8,30.11,SSW,202,1.0,3.0,100,0.00,,,-99.99,WeatherLink 6.0.2,2013-01-12 23:20:00,
2013-01-12 18:25:00,38.8,38.8,30.11,SW,232,1.0,2.0,100,0.00,,,0.29,Wunderground v.1.13,2013-01-12 23:25:00,
2013-01-12 18:30:00,38.9,38.9,30.11,SW,215,1.0,2.0,100,0.00,,,0.29,Wunderground v.1.13,2013-01-12 23:30:00,
2013-01-12 18:35:00,38.9,38.9,30.11,SW,215,1.0,2.0,100,0.00,,,0.29,Wunderground v.1.13,2013-01-12 23:35:00,
2013-01-12 18:40:00,38.9,38.9,30.11,SSW,193,1.0,1.0,100,0.00,,,0.29,Wunderground v.1.13,2013-01-12 23:40:00,
2013-01-12 18:45:00,38.6,38.6,30.12,WSW,247,1.0,3.0,100,0.00,,,-99.99,WeatherLink 6.0.2,2013-01-12 23:45:00,
2013-01-12 18:50:00,39.1,39.1,30.11,SSW,193,1.0,1.0,100,0.00,,,0.29,Wunderground v.1.13,2013-01-12 23:50:00,
2013-01-12 18:55:00,38.9,38.9,30.11,SSW,194,1.0,1.0,100,0.00,,,0.29,Wunderground v.1.13,2013-01-12 23:55:00,
2013-01-12 19:00:00,38.5,38.5,30.11,WSW,247,0.0,2.0,100,0.00,,,-99.99,WeatherLink 6.0.2,2013-01-13 00:00:00,
2013-01-12 19:05:00,38.8,38.8,30.11,SSW,194,1.0,1.0,100,0.00,,,0.29,Wunderground v.1.13,2013-01-13 00:05:00,
2013-01-12 19:10:00,38.8,38.8,30.11,SSW,194,1.0,1.0,100,0.00,,,0.29,Wunderground v.1.13,2013-01-13 00:10:00,
2013-01-12 19:15:00,38.6,38.6,30.11,SSW,194,1.0,3.0,100,0.00,,,0.29,Wunderground v.1.13,2013-01-13 00:15:00,
2013-01-12 19:20:00,38.3,38.3,30.11,WSW,247,0.0,2.0,100,0.00,,,-99.99,WeatherLink 6.0.2,2013-01-13 00:20:00,
2013-01-12 19:25:00,38.6,38.6,30.11,SSW,194,2.0,2.0,100,0.00,,,0.29,Wunderground v.1.13,2013-01-13 00:25:00,
2013-01-12 19:30:00,38.6,38.6,30.11,SSW,194,2.0,3.0,100,0.00,,,0.29,Wunderground v.1.13,2013-01-13 00:30:00,
2013-01-12 19:35:00,38.5,38.5,30.11,SSW,195,2.0,2.0,100,0.00,,,0.29,Wunderground v.1.13,2013-01-13 00:35:00,
2013-01-12 19:40:00,38.5,38.5,30.14,WSW,247,0.0,2.0,100,0.00,,,-99.99,WeatherLink 6.0.2,2013-01-13 00:40:00,
2013-01-12 19:45:00,38.6,38.6,30.12,WSW,248,1.0,1.0,100,0.00,,,0.29,Wunderground v.1.13,2013-01-13 00:45:00,
2013-01-12 19:50:00,38.5,38.5,30.13,WSW,247,0.0,2.0,100,0.00,,,-99.99,WeatherLink 6.0.2,2013-01-13 00:50:00,
2013-01-12 19:55:00,38.6,38.6,30.12,WSW,248,1.0,1.0,100,0.00,,,0.29,Wunderground v.1.13,2013-01-13 00:55:00,
2013-01-12 20:00:00,38.3,38.3,30.11,WSW,248,0.0,1.0,100,0.00,,,0.29,Wunderground v.1.13,2013-01-13 01:00:00,
2013-01-12 20:05:00,38.2,38.2,30.13,North,-999,0.0,0.0,100,0.00,,,-99.99,WeatherLink 6.0.2,2013-01-13 01:05:00,
2013-01-12 20:10:00,38.2,38.2,30.11,WSW,248,0.0,0.0,100,0.00,,,0.29,Wunderground v.1.13,2013-01-13 01:10:00,
2013-01-12 20:15:00,38.2,38.2,30.11,WSW,248,0.0,0.0,100,0.00,,,0.29,Wunderground v.1.13,2013-01-13 01:15:00,
2013-01-12 20:20:00,38.3,38.3,30.11,WSW,248,0.0,1.0,100,0.00,,,0.29,Wunderground v.1.13,2013-01-13 01:20:00,
2013-01-12 20:25:00,38.0,38.0,30.13,WSW,247,0.0,2.0,100,0.00,,,-99.99,WeatherLink 6.0.2,2013-01-13 01:25:00,
2013-01-12 20:30:00,38.0,38.0,30.12,WSW,247,0.0,1.0,100,0.00,,,-99.99,WeatherLink 6.0.2,2013-01-13 01:30:00,
2013-01-12 20:35:00,38.5,38.5,30.14,WSW,248,1.0,2.0,100,0.00,,,0.29,Wunderground v.1.13,2013-01-13 01:35:00,
2013-01-12 20:40:00,38.6,38.6,30.14,WSW,248,0.0,0.0,100,0.00,,,0.29,Wunderground v.1.13,2013-01-13 01:40:00,
2013-01-12 20:45:00,38.5,38.5,30.13,WSW,248,0.0,0.0,100,0.00,,,0.29,Wunderground v.1.13,2013-01-13 01:45:00,
2013-01-12 20:50:00,38.5,38.5,30.13,WSW,248,0.0,0.0,100,0.00,,,0.29,Wunderground v.1.13,2013-01-13 01:50:00,
2013-01-12 20:55:00,38.3,38.3,30.13,WSW,248,0.0,0.0,100,0.00,,,0.29,Wunderground v.1.13,2013-01-13 01:55:00,
2013-01-12 21:00:00,38.0,38.0,30.12,WSW,247,0.0,1.0,100,0.00,,,-99.99,WeatherLink 6.0.2,2013-01-13 02:00:00,
2013-01-12 21:05:00,38.2,38.2,30.13,WSW,248,0.0,0.0,100,0.00,,,0.29,Wunderground v.1.13,2013-01-13 02:05:00,
2013-01-12 21:10:00,38.2,38.2,30.12,WSW,247,1.0,2.0,100,0.00,,,-99.99,WeatherLink 6.0.2,2013-01-13 02:10:00,
2013-01-12 21:15:00,38.2,38.2,30.13,WSW,248,0.0,0.0,100,0.00,,,0.29,Wunderground v.1.13,2013-01-13 02:15:00,
2013-01-12 21:20:00,38.0,38.0,30.11,WSW,247,0.0,2.0,100,0.00,,,-99.99,WeatherLink 6.0.2,2013-01-13 02:20:00,
2013-01-12 21:25:00,38.0,38.0,30.13,WSW,248,1.0,1.0,100,0.00,,,0.29,Wunderground v.1.13,2013-01-13 02:25:00,
2013-01-12 21:30:00,37.9,37.9,30.12,WSW,248,0.0,0.0,100,0.00,,,0.29,Wunderground v.1.13,2013-01-13 02:30:00,
2013-01-12 21:35:00,38.0,38.0,30.12,WSW,248,0.0,0.0,100,0.00,,,0.29,Wunderground v.1.13,2013-01-13 02:35:00,
2013-01-12 21:40:00,38.3,38.3,30.12,WSW,247,1.0,3.0,100,0.00,,,-99.99,WeatherLink 6.0.2,2013-01-13 02:40:00,
2013-01-12 21:45:00,37.9,37.9,30.12,WSW,248,0.0,1.0,100,0.00,,,0.29,Wunderground v.1.13,2013-01-13 02:45:00,
2013-01-12 21:50:00,38.1,38.1,30.12,WSW,247,0.0,3.0,100,0.00,,,-99.99,WeatherLink 6.0.2,2013-01-13 02:50:00,
2013-01-12 21:55:00,38.0,38.0,30.12,WSW,248,0.0,0.0,100,0.00,,,0.29,Wunderground v.1.13,2013-01-13 02:55:00,
2013-01-12 22:00:00,38.0,38.0,30.12,WSW,248,0.0,0.0,100,0.00,,,0.29,Wunderground v.1.13,2013-01-13 03:00:00,
2013-01-12 22:05:00,38.4,38.4,30.12,SW,225,1.0,5.0,100,0.00,,,-99.99,WeatherLink 6.0.2,2013-01-13 03:05:00,
2013-01-12 22:10:00,38.2,38.2,30.12,WSW,248,0.0,1.0,100,0.00,,,0.29,Wunderground v.1.13,2013-01-13 03:10:00,
2013-01-12 22:15:00,38.2,38.2,30.11,WSW,248,1.0,1.0,100,0.00,,,0.29,Wunderground v.1.13,2013-01-13 03:15:00,
2013-01-12 22:20:00,38.0,38.0,30.11,WSW,248,0.0,0.0,100,0.00,,,0.29,Wunderground v.1.13,2013-01-13 03:20:00,
2013-01-12 22:25:00,38.2,38.2,30.11,WSW,248,0.0,2.0,100,0.00,,,0.29,Wunderground v.1.13,2013-01-13 03:25:00,
2013-01-12 22:30:00,38.3,38.3,30.12,SW,225,2.0,4.0,100,0.00,,,-99.99,WeatherLink 6.0.2,2013-01-13 03:30:00,
2013-01-12 22:35:00,38.2,38.2,30.12,WSW,248,0.0,0.0,100,0.00,,,0.29,Wunderground v.1.13,2013-01-13 03:35:00,
2013-01-12 22:40:00,38.3,38.3,30.12,WSW,248,0.0,1.0,100,0.00,,,0.29,Wunderground v.1.13,2013-01-13 03:40:00,
2013-01-12 22:45:00,38.2,38.2,30.11,West,270,1.0,2.0,100,0.00,,,-99.99,WeatherLink 6.0.2,2013-01-13 03:45:00,
2013-01-12 22:50:00,38.0,38.0,30.12,WSW,248,0.0,1.0,100,0.00,,,0.29,Wunderground v.1.13,2013-01-13 03:50:00,
2013-01-12 22:55:00,38.3,38.3,30.12,SW,223,1.0,1.0,100,0.00,,,0.29,Wunderground v.1.13,2013-01-13 03:55:00,
2013-01-12 23:00:00,38.3,38.3,30.12,SW,223,1.0,3.0,100,0.00,,,0.29,Wunderground v.1.13,2013-01-13 04:00:00,
2013-01-12 23:05:00,38.3,38.3,30.12,SW,223,1.0,1.0,100,0.00,,,0.29,Wunderground v.1.13,2013-01-13 04:05:00,
2013-01-12 23:10:00,37.7,37.7,30.11,North,-999,0.0,0.0,100,0.00,,,-99.99,WeatherLink 6.0.2,2013-01-13 04:10:00,
2013-01-12 23:15:00,38.3,38.3,30.13,SW,223,1.0,1.0,100,0.00,,,0.29,Wunderground v.1.13,2013-01-13 04:15:00,
2013-01-12 23:20:00,38.3,38.3,30.13,SW,216,1.0,2.0,100,0.00,,,0.29,Wunderground v.1.13,2013-01-13 04:20:00,
2013-01-12 23:25:00,38.3,38.3,30.13,SW,217,1.0,3.0,100,0.00,,,0.29,Wunderground v.1.13,2013-01-13 04:25:00,
2013-01-12 23:30:00,38.3,38.3,30.12,SSW,201,1.0,2.0,100,0.00,,,0.29,Wunderground v.1.13,2013-01-13 04:30:00,
2013-01-12 23:35:00,38.2,38.2,30.12,WSW,242,2.0,2.0,100,0.00,,,0.29,Wunderground v.1.13,2013-01-13 04:35:00,
2013-01-12 23:40:00,37.8,37.8,30.10,North,-999,0.0,0.0,100,0.00,,,-99.99,WeatherLink 6.0.2,2013-01-13 04:40:00,
2013-01-12 23:45:00,37.8,37.8,30.11,North,-999,0.0,0.0,100,0.00,,,-99.99,WeatherLink 6.0.2,2013-01-13 04:45:00,
2013-01-12 23:50:00,37.8,37.8,30.11,North,-999,0.0,0.0,100,0.00,,,-99.99,WeatherLink 6.0.2,2013-01-13 04:50:00,
2013-01-12 23:55:00,37.8,37.8,30.11,North,-999,0.0,0.0,100,0.00,,,-99.99,WeatherLink 6.0.2,2013-01-13 04:55:00,